FENGYUN 2F 1 38049U 12002A 21065.58004677 -.00000371 00000-0 00000-0 0 9992 2 38049 2.6715 82.6369 0004716 18.6491 23.5744 1.00256899 33559 CZ-3A R/B 1 38050U 12002B 21065.26279026 .00000080 00000-0 24719-3 0 9993 2 38050 24.6582 311.1688 7229094 160.5078 256.4161 2.29559074 76442 FENGYUN 2F AKM 1 38072U 12002C 21065.26861461 -.00000215 00000-0 00000-0 0 9992 2 38072 4.6155 74.0317 0056919 162.7423 13.6906 0.99398346 32663